This is the latest recevied weather packets stored in our database for station/object N2UFM. If no packets are shown the sender has not sent any weather packets the latest 10 day(s).
| Time | Temp. | Humidity | Pressure | Rain* | Wind** | Luminosity | Snow |
|---|---|---|---|---|---|---|---|
| 1777839455 | 16.67° C | 30% | 1011.8 hPa | 0 mm | - | - | - |
| 1777839155 | 16.67° C | 29% | 1011.8 hPa | 0 mm | - | - | - |
| 1777838855 | 16.67° C | 29% | 1011.9 hPa | 0 mm | - | - | - |
| 1777838555 | 16.67° C | 30% | 1011.8 hPa | 0 mm | - | - | - |
| 1777838255 | 16.67° C | 31% | 1012.1 hPa | 0 mm | - | - | - |
| 1777837955 | 16.67° C | 31% | 1012 hPa | 0 mm | - | - | - |
| 1777837655 | 16.11° C | 32% | 1012 hPa | 0 mm | - | - | - |
| 1777837354 | 15.56° C | 32% | 1012.2 hPa | 0 mm | - | - | - |
| 1777837054 | 15.56° C | 32% | 1012.2 hPa | 0 mm | - | - | - |
| 1777836754 | 15.56° C | 32% | 1012.3 hPa | 0 mm | - | - | - |
| 1777836454 | 15.56° C | 32% | 1012.3 hPa | 0 mm | - | - | - |
| 1777836154 | 15° C | 33% | 1012.3 hPa | 0 mm | - | - | - |
| 1777835854 | 15.56° C | 32% | 1012.4 hPa | 0 mm | - | - | - |
| 1777835553 | 16.11° C | 32% | 1012.3 hPa | 0 mm | - | - | - |
| 1777835253 | 16.11° C | 33% | 1012.4 hPa | 0 mm | - | - | - |
| 1777834953 | 15.56° C | 34% | 1012.3 hPa | 0 mm | - | - | - |
| 1777834653 | 15.56° C | 33% | 1012.4 hPa | 0 mm | - | - | - |
| 1777834353 | 16.11° C | 34% | 1012.5 hPa | 0 mm | - | - | - |
| 1777834053 | 15.56° C | 34% | 1012.5 hPa | 0 mm | - | - | - |
| 1777833752 | 15° C | 35% | 1012.8 hPa | 0 mm | - | - | - |
| 1777833452 | 15° C | 34% | 1012.7 hPa | 0 mm | - | - | - |
| 1777833152 | 15° C | 34% | 1012.9 hPa | 0 mm | - | - | - |
| 1777832852 | 15° C | 35% | 1012.8 hPa | 0 mm | - | - | - |
| 1777832552 | 15° C | 36% | 1012.8 hPa | 0 mm | - | - | - |
| 1777832252 | 15° C | 36% | 1012.9 hPa | 0 mm | - | - | - |
* Rain latest hour (hover to see other rain measurements)
** Current wind speed in m/s (hover to see current wind gust speed)